Wind_Speed
79 79 82 79 84 82 72 68 61 59 52 60 52 45 46 44 41 37 26 19 19 28 60 97 116 123 124 131 128 128 117 110 111 112 112 110 112 114 112 107 101 101 103 100
82 79 82 85 76 80 79 70 69 68 60 68 58 50 54 45 45 44 41 27 22 16 23 43 79 119 120 130 135 133 134 124 120 118 113 128 120 129 125 117 116 114 114 112
84 81 83 78 70 73 75 79 81 73 68 72 63 56 55 56 50 48 44 40 28 23 15 18 33 59 98 129 131 134 136 135 132 126 128 128 127 126 127 122 120 119 120 120
85 80 80 65 75 74 73 72 74 76 72 72 71 63 57 60 55 51 47 47 41 34 30 21 16 23 40 67 109 139 144 146 144 140 136 134 130 129 126 122 122 123 127 130
84 78 76 72 73 76 73 70 69 72 76 76 75 67 61 63 62 52 50 48 46 43 37 28 26 19 19 24 43 73 112 137 140 137 140 138 136 134 131 131 131 131 127 132
83 80 76 67 73 76 72 64 72 74 79 79 77 71 70 65 64 58 54 52 50 48 46 41 36 29 26 23 21 26 42 70 102 129 134 135 137 138 137 135 135 136 138 136
80 81 74 67 72 75 70 63 77 76 82 81 79 77 73 70 66 64 60 57 54 50 49 46 43 41 36 33 28 24 24 27 38 59 87 112 125 129 131 132 133 136 138 141
84 86 70 63 72 74 74 75 76 79 80 85 82 81 78 76 73 69 66 62 61 58 55 51 49 47 43 40 37 36 31 29 29 28 32 40 54 70 87 101 111 118 124 126
83 79 71 69 71 73 73 76 77 79 81 84 86 85 83 81 78 77 73 70 65 64 60 59 55 53 50 47 46 43 42 38 36 37 35 35 36 37 39 45 53 61 70 81
81 78 74 64 70 74 77 78 76 77 82 84 88 90 89 85 83 81 79 75 73 68 66 64 63 60 58 57 54 51 49 48 46 45 44 42 42 43 44 46 45 45 46 46
77 74 70 69 69 74 79 81 79 80 83 84 88 94 92 89 86 85 84 80 78 78 75 73 71 70 67 65 62 59 56 52 52 53 53 53 52 52 52 52 52 52 53 53
70 68 67 68 70 75 79 80 80 82 83 88 90 94 102 101 97 93 89 87 84 85 84 83 80 77 76 74 70 66 62 60 60 62 63 62 62 61 61 61 60 60 60 61
66 64 63 65 66 72 78 82 84 85 85 86 89 90 91 98 101 99 96 93 92 89 88 88 86 83 80 77 76 74 72 71 69 70 71 71 71 71 70 70 69 69 69 70
62 63 64 65 66 67 73 79 83 85 86 85 86 89 93 94 100 102 98 96 94 92 91 90 88 86 85 84 83 83 82 80 79 78 78 78 78 77 77 77 77 78 78 79
60 61 61 61 63 65 69 73 78 83 85 86 85 87 91 95 99 105 105 103 101 99 97 96 95 94 93 93 92 91 90 88 87 86 84 85 85 86 86 87 87 87 88 89
57 58 58 58 60 63 67 70 73 77 81 84 86 86 87 92 97 101 109 111 109 107 105 104 102 102 99 97 97 97 96 96 95 94 94 94 93 92 92 92 92 93 94 95
54 55 56 57 59 60 63 67 70 74 78 83 86 87 88 89 93 99 103 106 112 114 114 111 109 107 107 106 105 103 103 102 102 102 102 102 102 101 100 100 101 102 102 103
50 54 56 57 59 60 62 65 68 71 75 80 83 86 87 89 91 95 100 102 105 109 114 117 118 117 116 115 115 114 113 112 111 111 110 110 110 110 110 111 111 110 111 113
49 52 54 56 57 59 61 64 67 71 74 78 81 84 86 88 90 92 96 99 102 104 107 110 114 118 121 123 123 122 122 121 119 118 119 119 119 119 118 119 119 120 120 119
44 46 50 53 55 57 59 62 66 69 72 75 78 82 85 88 89 92 94 96 99 101 103 105 106 107 109 111 114 116 118 119 119 119 118 118 117 117 118 118 118 119 118 116
42 44 47 50 54 56 59 63 65 68 71 75 78 81 83 86 89 91 93 96 98 100 101 103 104 105 106 106 108 109 109 108 107 105 104 104 102 103 105 106 106 106 106 107
42 43 44 47 51 55 59 62 66 69 71 74 77 80 82 85 87 90 92 94 95 97 98 99 100 100 100 99 102 102 102 102 102 101 101 102 102 101 101 100 99 100 101 102
42 44 46 48 51 53 56 59 64 68 72 74 76 78 82 84 86 88 91 92 95 96 96 96 95 95 95 95 96 95 94 95 95 96 95 93 93 94 95 96 97 97 98 98
41 42 43 45 47 50 53 55 58 62 67 71 74 77 79 80 80 81 83 84 85 86 88 89 89 89 89 89 88 87 89 90 90 90 89 89 89 89 89 89 89 90 89 88
38 39 41 42 44 46 48 51 54 57 60 63 66 68 71 73 76 76 76 77 77 76 76 75 74 74 74 73 73 73 73 74 74 74 74 75 75 74 74 72 72 72 71 70
31 33 35 36 37 39 42 44 46 47 49 52 54 55 58 59 62 65 67 68 69 69 69 68 67 66 66 65 64 64 64 64 63 63 63 62 62 62 62 61 61 60 59 59
29 30 31 31 31 34 36 36 38 40 41 43 46 46 47 50 51 53 56 58 58 58 57 57 57 57 58 58 58 58 58 58 57 56 56 56 55 55 54 53 52 51 50 50
Wind_Direction
259 257 257 256 254 252 250 249 249 251 254 258 254 254 260 265 271 274 276 256 259 252 237 231 232 231 233 233 232 229 230 231 235 239 241 242 245 251 256 259 258 261 266 266
261 260 256 253 254 249 249 248 245 247 251 250 252 248 252 253 259 268 276 270 252 252 254 244 234 232 233 232 232 231 232 234 235 239 249 243 245 251 254 257 258 259 265 264
259 257 254 253 254 249 246 247 246 242 243 248 247 245 246 253 252 259 266 274 263 261 259 255 249 238 234 231 232 233 233 235 240 243 244 247 245 253 257 258 259 259 261 261
257 256 254 248 242 245 248 247 244 238 237 239 242 242 241 247 247 252 258 266 271 270 275 247 249 250 244 237 235 233 235 238 241 244 245 246 247 249 253 256 257 258 258 261
252 251 248 245 243 244 247 242 241 235 233 232 236 238 238 239 247 245 250 256 263 268 271 264 242 260 255 250 242 237 237 237 239 241 244 247 248 250 252 255 258 260 261 264
249 247 247 241 241 243 241 236 237 232 229 230 230 233 233 237 242 243 242 248 252 260 264 265 263 261 258 261 258 248 239 238 239 240 241 245 247 250 252 254 256 258 261 262
247 247 243 240 238 240 239 231 232 232 228 229 229 229 231 233 234 238 240 242 245 249 257 261 267 268 266 265 268 260 254 249 243 241 243 244 246 249 250 252 254 257 259 263
242 246 246 236 236 237 235 231 232 231 231 228 228 230 229 230 232 231 237 240 242 245 249 250 257 263 263 264 265 266 259 253 259 254 251 248 247 249 251 252 254 255 258 261
240 243 239 232 234 236 236 235 234 231 231 231 228 230 230 230 230 231 233 237 240 243 244 248 250 252 256 258 259 261 265 265 262 261 262 259 259 258 256 256 256 257 258 260
236 237 236 229 229 233 236 237 236 231 229 231 229 229 231 230 230 230 231 233 235 239 243 245 246 247 249 252 256 259 264 268 269 267 265 265 267 266 264 265 269 269 267 267
233 235 233 230 226 228 230 233 234 232 231 231 230 229 229 230 231 233 232 231 232 235 237 240 243 246 249 251 255 260 261 264 266 265 264 264 266 268 269 271 273 274 274 275
232 231 230 228 224 225 229 232 233 232 231 232 231 229 230 232 235 236 236 233 233 235 237 239 241 244 250 254 256 257 256 256 257 259 260 260 263 264 265 267 268 269 270 270
231 231 229 228 226 225 226 228 230 231 232 233 233 232 232 233 235 236 237 235 234 237 240 243 247 249 249 251 253 253 253 253 254 255 258 260 261 261 262 263 264 265 267 268
230 231 229 227 226 223 224 226 228 231 232 233 233 233 233 233 232 234 235 237 237 237 239 243 245 248 250 250 250 251 252 253 253 255 256 258 259 261 262 263 264 265 265 266
233 232 231 231 229 227 226 226 228 230 231 233 234 234 234 234 234 233 235 238 239 239 239 240 241 243 246 248 251 254 255 256 257 258 257 256 257 259 260 262 263 265 266 267
232 233 232 230 229 229 228 227 228 229 230 232 235 236 235 235 235 236 236 238 241 243 244 246 246 246 247 249 251 252 254 256 257 258 260 261 261 261 262 263 264 265 267 268
231 232 231 231 231 230 229 229 230 231 231 232 234 235 236 236 237 238 239 240 241 243 244 246 247 248 249 250 252 253 255 256 257 259 260 261 262 263 265 266 266 268 269 269
233 233 233 232 231 230 230 231 231 232 233 234 235 236 238 238 238 238 239 242 244 245 245 246 248 249 250 252 253 255 256 258 259 260 262 262 264 265 266 268 269 270 270 271
237 238 239 238 237 236 234 233 233 234 235 236 237 238 239 240 241 241 242 243 244 245 247 248 250 251 252 253 255 256 257 259 260 261 263 264 265 266 267 269 270 272 273 274
242 241 243 245 244 242 241 240 239 238 238 239 241 242 243 244 245 245 246 246 247 248 250 251 253 254 256 257 258 258 259 261 262 264 265 267 268 268 269 270 271 272 273 274
248 244 244 244 246 245 244 243 243 242 242 241 241 242 244 245 247 248 249 250 252 253 254 254 255 256 257 259 260 260 260 262 264 266 267 268 269 270 271 272 273 273 273 274
250 248 246 246 245 244 245 246 247 247 246 246 246 246 247 248 249 249 250 251 253 254 255 256 257 258 260 261 262 263 264 265 267 269 270 271 271 272 272 273 274 274 274 274
254 252 250 249 247 246 246 246 244 245 247 249 250 250 251 251 252 252 253 253 255 257 258 260 262 263 264 265 267 269 270 270 270 271 272 273 273 272 271 271 271 270 270 271
257 256 255 254 253 253 252 251 250 249 249 250 251 253 255 257 259 259 259 260 261 261 262 263 264 266 266 268 269 270 269 268 268 268 269 270 269 269 269 270 270 270 271 272
259 259 259 257 255 254 254 252 252 252 253 254 255 256 258 260 262 265 266 267 268 269 269 268 268 268 269 269 269 269 268 268 269 268 268 268 268 268 269 270 270 271 271 271
266 264 263 262 261 260 259 258 257 256 256 257 257 258 259 260 261 262 264 265 265 265 267 270 272 273 273 273 273 273 273 272 272 273 273 274 275 275 275 275 275 275 275 275
274 271 270 269 268 267 265 264 265 263 260 260 261 259 259 260 260 261 262 264 266 268 269 269 269 270 270 271 272 273 273 274 274 275 275 275 275 275 275 275 275 275 275 274
Height
10385 10390 10392 10399 10409 10418 10437 10450 10461 10462 10471 10459 10471 10480 10480 10480 10481 10481 10482 10481 10479 10476 10476 10483 10494 10501 10510 10518 10524 10532 10536 10544 10551 10556 10561 10565 10571 10568 10564 10569 10569 10568 10566 10567
10358 10362 10364 10369 10386 10395 10410 10424 10435 10440 10454 10437 10454 10465 10461 10467 10467 10468 10470 10472 10471 10469 10466 10465 10466 10475 10485 10494 10502 10508 10516 10523 10531 10540 10539 10536 10552 10539 10545 10550 10551 10555 10555 10554
10328 10330 10331 10349 10374 10370 10380 10393 10401 10421 10426 10420 10435 10444 10447 10449 10452 10455 10457 10459 10461 10461 10458 10456 10454 10454 10456 10468 10479 10486 10495 10502 10508 10517 10518 10521 10530 10527 10524 10536 10534 10537 10534 10531
10296 10303 10308 10348 10335 10345 10355 10368 10376 10391 10403 10406 10410 10423 10432 10429 10434 10439 10443 10445 10448 10449 10448 10448 10446 10444 10443 10445 10450 10460 10470 10477 10484 10493 10498 10499 10504 10506 10509 10511 10513 10512 10511 10510
10263 10279 10292 10307 10315 10321 10328 10343 10354 10365 10373 10382 10386 10404 10413 10411 10415 10425 10427 10430 10432 10435 10437 10437 10436 10436 10435 10433 10432 10436 10443 10450 10458 10465 10474 10480 10485 10487 10491 10491 10489 10492 10501 10491
10238 10252 10271 10288 10287 10292 10304 10326 10324 10335 10344 10356 10367 10382 10385 10396 10400 10406 10410 10414 10417 10421 10423 10424 10425 10424 10426 10426 10425 10424 10424 10429 10436 10445 10447 10453 10459 10463 10466 10470 10470 10467 10466 10470
10215 10223 10248 10263 10263 10267 10284 10307 10296 10305 10321 10333 10346 10356 10367 10375 10382 10386 10391 10397 10401 10405 10407 10410 10411 10412 10415 10415 10415 10416 10417 10418 10419 10421 10425 10430 10435 10440 10443 10447 10448 10449 10447 10443
10190 10196 10229 10242 10241 10247 10257 10268 10278 10286 10297 10310 10324 10333 10345 10353 10360 10367 10372 10378 10384 10388 10392 10395 10398 10399 10401 10402 10402 10404 10407 10409 10411 10412 10412 10413 10415 10417 10420 10422 10423 10424 10427 10423
10169 10184 10200 10210 10220 10228 10239 10248 10255 10266 10276 10287 10302 10311 10321 10331 10340 10347 10355 10360 10365 10370 10374 10379 10382 10385 10386 10388 10388 10390 10393 10395 10397 10398 10400 10402 10403 10403 10403 10403 10402 10401 10401 10398
10146 10162 10177 10192 10199 10206 10214 10223 10234 10246 10255 10265 10277 10287 10297 10308 10317 10325 10333 10341 10348 10353 10356 10360 10364 10366 10368 10370 10373 10376 10378 10380 10382 10383 10384 10386 10386 10387 10388 10389 10388 10386 10384 10381
10127 10143 10156 10166 10177 10183 10190 10199 10211 10223 10234 10243 10252 10263 10272 10282 10292 10301 10310 10319 10327 10329 10335 10339 10342 10346 10349 10352 10356 10359 10363 10365 10367 10368 10367 10368 10370 10370 10370 10369 10369 10368 10366 10365
10108 10122 10134 10145 10155 10162 10170 10179 10191 10201 10210 10218 10226 10236 10245 10256 10268 10280 10290 10298 10304 10307 10312 10317 10321 10325 10330 10334 10339 10343 10346 10347 10348 10348 10348 10348 10350 10351 10351 10350 10351 10350 10349 10348
10092 10103 10115 10125 10134 10144 10151 10159 10168 10178 10187 10196 10205 10216 10228 10237 10246 10255 10265 10274 10281 10287 10291 10295 10301 10310 10315 10318 10320 10322 10324 10326 10328 10329 10330 10330 10330 10330 10331 10330 10331 10331 10329 10328
10077 10086 10096 10106 10115 10124 10131 10140 10149 10157 10165 10175 10185 10193 10203 10212 10221 10229 10238 10247 10256 10265 10272 10279 10283 10287 10291 10293 10295 10298 10300 10303 10305 10307 10309 10309 10309 10310 10310 10310 10310 10309 10309 10308
10063 10071 10080 10090 10098 10107 10114 10121 10129 10137 10145 10154 10164 10173 10180 10188 10197 10205 10213 10220 10227 10234 10241 10247 10252 10257 10261 10264 10267 10271 10273 10276 10278 10282 10284 10285 10286 10287 10288 10287 10287 10286 10285 10284
10049 10056 10065 10073 10081 10088 10095 10103 10111 10118 10127 10135 10143 10151 10160 10167 10175 10182 10189 10196 10202 10208 10214 10219 10225 10230 10234 10238 10241 10244 10247 10249 10251 10253 10255 10256 10258 10259 10260 10261 10262 10262 10261 10260
10036 10042 10049 10057 10065 10072 10079 10086 10094 10101 10108 10115 10122 10130 10137 10146 10152 10158 10163 10169 10175 10181 10186 10191 10196 10201 10206 10210 10213 10216 10219 10221 10224 10226 10227 10228 10229 10231 10233 10233 10233 10232 10231 10230
10025 10029 10034 10041 10048 10056 10063 10069 10076 10082 10088 10095 10102 10109 10116 10122 10128 10133 10139 10145 10150 10155 10159 10164 10169 10173 10177 10180 10183 10186 10190 10193 10196 10198 10199 10200 10202 10203 10203 10203 10203 10203 10202 10201
10014 10018 10024 10029 10035 10042 10048 10054 10059 10065 10070 10076 10082 10088 10093 10099 10105 10111 10116 10120 10124 10128 10131 10135 10139 10143 10148 10152 10155 10158 10160 10162 10164 10167 10169 10170 10171 10172 10172 10172 10171 10171 10170 10168
10005 10009 10013 10017 10022 10028 10033 10039 10044 10049 10054 10059 10064 10068 10072 10077 10082 10087 10091 10096 10099 10103 10107 10110 10113 10117 10120 10122 10124 10126 10128 10131 10133 10136 10138 10139 10140 10139 10139 10139 10139 10137 10135 10134
9991 9996 10000 10004 10007 10011 10015 10019 10023 10028 10033 10037 10041 10045 10050 10055 10059 10063 10067 10071 10075 10078 10080 10082 10085 10087 10090 10094 10093 10094 10097 10101 10105 10107 10108 10109 10109 10108 10108 10108 10107 10105 10103 10101
9977 9980 9984 9988 9992 9995 9998 10001 10004 10008 10012 10017 10020 10024 10028 10031 10036 10039 10042 10045 10047 10049 10050 10052 10054 10057 10059 10064 10063 10065 10069 10072 10073 10075 10076 10076 10076 10075 10073 10072 10072 10071 10070 10067
9963 9965 9968 9971 9974 9977 9980 9983 9986 9988 9991 9994 9998 10001 10004 10008 10011 10014 10015 10018 10018 10020 10023 10024 10027 10030 10032 10035 10036 10038 10040 10042 10044 10044 10044 10043 10042 10041 10040 10038 10038 10036 10033 10031
9950 9952 9954 9957 9959 9961 9963 9966 9968 9970 9972 9974 9975 9977 9978 9980 9983 9987 9989 9991 9994 9997 9997 9998 10001 10003 10005 10007 10010 10010 10010 10010 10009 10010 10010 10009 10008 10008 10007 10006 10005 10002 10001 10000
9937 9939 9940 9942 9943 9945 9946 9948 9950 9951 9953 9954 9956 9958 9960 9962 9962 9962 9966 9966 9967 9969 9969 9971 9974 9976 9977 9979 9979 9979 9979 9979 9979 9980 9979 9979 9979 9978 9978 9977 9976 9974 9973 9971
9926 9926 9927 9928 9929 9931 9931 9932 9933 9936 9938 9937 9938 9941 9942 9944 9944 9944 9942 9944 9945 9946 9947 9948 9950 9951 9950 9951 9952 9952 9953 9953 9953 9953 9952 9952 9952 9951 9950 9950 9949 9948 9947 9946
9914 9914 9914 9915 9917 9916 9916 9918 9919 9920 9921 9921 9920 9924 9925 9924 9924 9924 9924 9924 9925 9927 9928 9930 9931 9931 9931 9932 9932 9931 9931 9931 9931 9932 9932 9931 9931 9930 9930 9929 9928 9927 9925 9923